Regional Weather Roundup
Issued by NWS

Home | Current Version | Previous Version | Text Only | Print | Product List | Glossary Off
Versions: 1 2 3 4 5 6 7 8 9 10 11 12 13 14 15 16 17 18 19 20 21 22 23 24 25 26 27 28 29 30 31 32 33 34 35 36 37 38 39 40 41 42 43 44 45 46 47 48 49 50

000
ASUS45 KBOI 201510
RWRID
WEATHER ROUNDUP FOR IDAHO
NATIONAL WEATHER SERVICE BOISE ID
800 AM MST SAT DEC 20 2014

NOTE: "FAIR" INDICATES FEW OR NO CLOUDS BELOW 12000 FEET
WITH NO SIGNIFICANT WEATHER AND/OR OBSTRUCTIONS TO VISIBILITY

IDZ012-014-201600-
SOUTHWEST IDAHO


CITY           SKY/WX    TMP DP  RH WIND       PRES   REMARKS
BOISE          LGT RAIN  40  36  86 SE6       30.03R
CALDWELL       CLOUDY    39  32  75 E8        30.02F WCI  34
MOUNTAIN HOME  LGT RAIN  37  35  92 E13       30.04R WCI  29
$$

IDZ016-017-201600-
SOUTHCENTRAL IDAHO


CITY           SKY/WX    TMP DP  RH WIND       PRES   REMARKS
BURLEY         CLOUDY    38  31  76 S14       30.03F WCI  30
JEROME         CLOUDY    36  31  82 E8        30.04F WCI  30
TWIN FALLS     CLOUDY    40  30  67 S13       30.03S WCI  32
$$

IDZ019>023-201600-
SOUTHEAST IDAHO


CITY           SKY/WX    TMP DP  RH WIND       PRES   REMARKS
IDAHO FALLS    CLOUDY    35  32  88 SW8       30.05F WCI  29
POCATELLO      CLOUDY    37  32  82 CALM      30.06S
REXBURG        CLOUDY    33  33 100 SW6       30.04F WCI  28
$$

IDZ006-010-011-018-031-032-201600-
CENTRAL IDAHO MOUNTAINS


CITY           SKY/WX    TMP DP  RH WIND       PRES   REMARKS
MCCALL         LGT SNOW  31  30  96 SE10      29.92S FOG     WCI  22
HAILEY         LGT SNOW  27  27 100 W5        30.04F WCI  21
STANLEY          N/A     22  17  81 CALM      29.97F
SALMON         CLOUDY    27  25  93 CALM      29.99F VSB 1/2
CHALLIS        CLOUDY    25  23  92 CALM      29.98F
$$

IDZ002-004-006-007-026-201600-
NORTHERN IDAHO


CITY           SKY/WX    TMP DP  RH WIND       PRES   REMARKS
LEWISTON       CLOUDY    37  35  92 E7        29.91F WCI  32
LOWELL           N/A     36  35  96 N3        29.99F
COEUR D`ALENE  CLOUDY    34  30  86 E3        29.88F
MULLAN PASS    CLOUDY    26  23  88 VRB3      29.82F FOG
$$



USA.gov is the U.S. government's official web portal to all federal, state and local government web resources and services.